Home   Weather   São Paulo   Past weeks

Flag for Brazil Past Weather in São Paulo, São Paulo, Brazil — Yesterday and Last 2 Weeks

Now
55 °F

Cool.


Feels Like: 55 °F
Forecast: 55 / 74 °F
Wind: 3 mph from Southeast

Location: Sao Paulo Airport

Current Time: Jul 28, 2017 at 4:08:19 am

Latest Report: Jul 28, 2017 at 3:00 am


Visibility: 6 mi

Pressure: 30.33 "Hg (27.68 "Hg at 765m altitude)

Humidity: 88%

Dew Point: 52 °F

Location of São PauloLocation

Past Weather in São Paulo — Graph

°F

São Paulo Temperature Yesterday

Maximum temperature yesterday: 73 °F (at 1:00 pm)
Minimum temperature yesterday: 57 °F (at 4:00 am)
Average temperature yesterday: 62 °F

High & Low Weather Summary for the Past Weeks

 TemperatureHumidityPressure
High77 °F (Jul 17, 1:00 pm)94% (Jul 20, 7:00 pm)30.42 "Hg (Jul 20, 7:00 pm)
Low45 °F (Jul 18, 9:00 pm)27% (Jul 21, 11:00 am)30.15 "Hg (Jul 15, 3:00 pm)
Average62 °F68%30.29 "Hg
* Reported Jul 13 3:00 am — Jul 28 3:00 am, São Paulo. Weather by CustomWeather, © 2017

Note: Actual official high and low records may vary slightly from our data, if they occured in-between our weather recording intervals... More about our weather records

Advertising

São Paulo Weather History for the Previous 24 Hours

Scroll right to see more
 ConditionsComfort  
Time TempWeatherWind HumidityBarometerVisibility
3:00 am
Fri, Jul 28
55 °FCool.3 mph88%30.33 "Hg6 mi
2:19 am55 °FFog.3 mph88%30.33 "Hg3 mi
2:00 am55 °FFog.5 mph88%30.33 "Hg3 mi
1:00 am55 °FFog.3 mph88%30.36 "Hg3 mi
12:21 am55 °FFog.6 mph88%30.36 "Hg3 mi
12:00 am55 °FCool.6 mph88%30.36 "Hg4 mi
11:01 pm
Thu, Jul 27
57 °FClear.6 mph82%30.36 "Hg4 mi
10:00 pm57 °FClear.7 mph88%30.36 "Hg10 mi
9:00 pm59 °FPassing clouds.9 mph82%30.36 "HgN/A
8:00 pm59 °FPassing clouds.8 mph82%30.33 "HgN/A
7:00 pm61 °FPassing clouds.8 mph77%30.33 "HgN/A
6:00 pm61 °FPassing clouds.14 mph83%30.30 "HgN/A
5:00 pm64 °FSunny.15 mph73%30.30 "Hg10 mi
4:00 pm68 °FSunny.14 mph64%30.30 "Hg10 mi
3:00 pm72 °FSunny.12 mph53%30.30 "Hg10 mi
2:00 pm73 °FSunny.13 mph44%30.30 "Hg10 mi
1:00 pm73 °FPassing clouds.6 mph41%30.30 "HgN/A
12:00 pm72 °FSunny.6 mph47%30.36 "Hg10 mi
11:00 am68 °FPassing clouds.7 mph56%30.36 "HgN/A
10:00 am66 °FPassing clouds.6 mph60%30.36 "HgN/A
9:00 am63 °FPassing clouds.7 mph68%30.36 "HgN/A
8:00 am61 °FPassing clouds.3 mph68%30.33 "HgN/A
7:00 am57 °FPassing clouds.3 mph77%30.33 "HgN/A
6:00 am57 °FClear.2 mph72%30.30 "Hg10 mi
5:00 am57 °FClear.2 mph72%30.30 "Hg10 mi
4:00 am57 °FClear.2 mph72%30.27 "Hg10 mi
Weather by CustomWeather, © 2017

See weather overviewHow to use our weather pages